Regional Weather Roundup
Issued by NWS

Home | Current Version | Previous Version | Graphics & Text | Print | Product List | Glossary Off
Versions: 1 2 3 4 5 6 7 8 9 10 11 12 13 14 15 16 17 18 19 20 21 22 23 24 25 26 27 28 29 30 31 32 33 34 35 36 37 38 39 40 41 42 43 44 45 46 47 48 49 50

000
ASUS43 KMKX 300200
RWRWI

WISCONSIN REGIONAL WEATHER ROUNDUP
NATIONAL WEATHER SERVICE MILWAUKEE/SULLIVAN WI
900 PM CDT MON JUN 29 2015

NOTE: "FAIR" INDICATES FEW OR NO CLOUDS BELOW 12,000 FEET WITH NO
SIGNIFICANT WEATHER AND/OR OBSTRUCTIONS TO VISIBILITY.

WIZ001-002-006>008-014>016-023>028-300300-
NORTHWEST WISCONSIN

CITY           SKY/WX    TMP DP  RH WIND       PRES   REMARKS
SUPERIOR ARPT  PTCLDY    69  64  82 N3        29.79R
ASHLAND        LGT RAIN  65  64  97 NE7       29.80R
HAYWARD        CLEAR     65  62  90 CALM      29.80S FOG
SIREN          CLEAR     64  62  93 CALM      29.81S
CUMBERLAND     PTCLDY    61  59  94 CALM      29.81S
RICE LAKE      PTCLDY    63  60  90 W3        29.81S
CHETEK         PTCLDY    62  61  97 CALM      29.80S FOG
LADYSMITH      PTCLDY    63  60  92 NW3       29.81S
EAU CLAIRE     CLOUDY    61  58  90 CALM      29.78R FOG
MENOMONIE      MOCLDY    62  62  99 W3        29.80R FOG
NEW RICHMOND   PTCLDY    61  59  96 S3        29.81S
OSCEOLA        PTCLDY    63  63 100 CALM      29.82S
$$

WIZ003>005-009-010-017-018-300300-
NORTH CENTRAL WISCONSIN

CITY           SKY/WX    TMP DP  RH WIND       PRES   REMARKS
MANITOWISH WTR MOCLDY    64  64  99 N3        29.80R
ARBOR VITAE    MOCLDY    64  62  91 CALM      29.79F
WOODRUFF       MOCLDY    64  62  91 CALM      29.79F
RHINELANDER    CLOUDY    63  60  90 CALM      29.80S
EAGLE RIVER    CLOUDY    64  57  80 CALM      29.79S
LAND O LAKES   CLOUDY    63  61  94 CALM      29.81S
PHILLIPS       CLEAR     62  60  94 CALM      29.80S
TOMAHAWK       FOG       60  58  94 CALM      29.80F VSB 1
MEDFORD        CLOUDY    59  58  96 CALM      29.79S
MERRILL        MOCLDY    61  60  97 CALM      29.80S
$$

WIZ029-030-035-036-043>047-300300-
CENTRAL WISCONSIN

CITY           SKY/WX    TMP DP  RH WIND       PRES   REMARKS
WAUSAU         CLOUDY    62  59  90 W6        29.77S
MOSINEE        NOT AVBL
MARSHFIELD     CLOUDY    61  56  83 N5        29.79R
STEVENS POINT  CLOUDY    60  58  94 CALM      29.79S
WAUPACA        CLOUDY    64  62  93 CALM      29.77F
WAUTOMA        NOT AVBL
WISC RAPIDS    CLOUDY    62  58  86 E3        29.79R
CAMP DOUGLAS   NOT AVBL
$$

WIZ011>013-019>022-031-037>040-048>050-300300-
NORTHEAST WISCONSIN

CITY           SKY/WX    TMP DP  RH WIND       PRES   REMARKS
ANTIGO         CLOUDY    60  59  98 NW6       29.79F
SHAWANO        CLOUDY    64  62  90 CALM      29.77S
OCONTO         CLOUDY    65  65 100 CALM      29.74F
STURGEON BAY   CLOUDY    64  57  77 S6        29.77F
GREEN BAY      CLOUDY    68  65  90 CALM      29.75F
MANITOWOC      NOT AVBL
APPLETON       NOT AVBL
CLINTONVILLE   CLOUDY   N/A N/A N/A CALM      29.76F
OSHKOSH        MOCLDY    65  61  87 W8        29.76S
$$

WIZ032>034-041-042-053>061-300300-
SOUTHWEST WISCONSIN

CITY           SKY/WX    TMP DP  RH WIND       PRES   REMARKS
LA CROSSE      LGT RAIN  65  62  90 SW8       29.79S
SPARTA         CLOUDY    61  60  94 CALM      29.79R
VIROQUA        CLOUDY    63  63 100 CALM      29.80F
BOSCOBEL       RAIN      64  61  90 SE7       29.76F FOG
PRAIRIE DU CHI LGT RAIN  62  61  95 SE6       29.79F
PLATTEVILLE    CLOUDY    69  65  87 N8        29.82R
$$

WIZ056-057-062-063-064-067-068-300300-
SOUTH CENTRAL WISCONSIN

CITY           SKY/WX    TMP DP  RH WIND       PRES   REMARKS
REEDSBURG      CLOUDY    61  60  95 SW5       29.78F
BARABOO/DELLS  CLOUDY    61  58  90 S3        29.78F
LONE ROCK      NOT AVBL
MINERAL POINT  HVY RAIN  63  61  94 N15       29.84R
MADISON        CLOUDY    65  57  75 W5        29.80R THUNDER
MIDDLETON      MOCLDY    64  62  92 SW5       29.81F
WATERTOWN      MOCLDY    66  62  85 NW6       29.79R
MONROE         PTCLDY    70  64  83 SW3       29.79S
JANESVILLE     PTCLDY    72  63  73 VRB3      29.78S
$$

WIZ051-052-058>065-066-070>072-300300-
SOUTHEAST WISCONSIN

CITY           SKY/WX    TMP DP  RH WIND       PRES   REMARKS
MILWAUKEE      PTCLDY    65  60  84 SE7       29.78F
WAUKESHA       PTCLDY    66  61  82 SW6       29.79F
MILWAUKEE/TIMM CLEAR     70  59  68 SE3       29.79S
RACINE         CLEAR     64  60  87 S6        29.80F FOG
BURLINGTON     CLEAR     63  61  93 CALM      29.79S
KENOSHA        CLEAR     65  61  87 SE7       29.79F
FOND DU LAC    CLOUDY    67  63  87 SW5       29.77R
SHEBOYGAN      MOCLDY    65  60  84 S7        29.77F
WEST BEND      MOCLDY    63  59  88 CALM      29.78S
JUNEAU         RAIN      63  62  94 CALM      29.78F
$$

LSZ147-162-300300-
LAKE SUPERIOR

STATION/POSITION TIME  TEMP    WIND        PRES    WAVE
                       AIR SEA DIR/SP/G            HT/PER
                 (UTC) (F)     (DEG/KT/KT) (MB)    (FT/S)
W MID LAKE BUOY  0050   50 39   20/  6/  8 1009.1R   0
DEVILS ISLAND    0100   59     340/  4/  5 1009.0R
SAXON HARBOR     0140   65      60/  2/  7 1008.5R
$$

LMZ867-665-643>646-300300-
LAKE MICHIGAN

STATION/POSITION TIME  TEMP    WIND        PRES    WAVE
                       AIR SEA DIR/SP/G            HT/PER
                 (UTC) (F)     (DEG/KT/KT) (MB)    (FT/S)
CHAMBERS ISLAND  0100   67     190/  5/ 11 1007.8S
S GREEN BAY BUOY 0100   71 72  180/ 10/ 12 1008.9
N MID LAKE BUOY  0050   54 50  170/ 10/ 14 1008.3R   1
NORTHPORT PIER   0100   67     180/  2/  4 1007.8R
ALGOMA LAKESHORE 0110          220/  8/ 10   N/A
KEWAUNEE LAKESHO 0100   61     180/  9/ 11 1007.8F
SHEBOYGAN LAKESH 0100   62     190/ 12/ 12 1008.6F
PORT WASHINGTON  0100   64     190/  4/  6 1009.1
ATWATER BUOY     0100   62 61  150/ 10/ 12 1010.0F
MILWAUKEE LAKESH 0100   62     160/ 11/ 12   N/A
KENOSHA   LAKESH 0100   62     170/  6/  6 1008.8S
$$

TC  - TEMPERATURE IN CELSIUS
VSB - VISIBILITY IN STATUTE MILES
WCI - WIND CHILL INDEX
HX  - HEAT INDEX




USA.gov is the U.S. government's official web portal to all federal, state and local government web resources and services.